AIB8421 KSAT-KELP

Flight info

Callsign AIB8421
Flight time 1h 27m
Altitude 36000
Route ALISS7 ALISS FST TXSAS BEAHR3
Aircraft A320/M-SDE3FGHIRWY/LB1

Departure

Time 2026-04-25 14:33
Airport San Antonio International Airport (KSAT)

Arrival

Time 2026-04-25 16:01
Airport El Paso International Airport (KELP)
Time Latitude Longitude Altitude Speed Heading
2026-04-25 13:44 29.52468 -98.47227 798 ft 0 kts 337°
2026-04-25 14:06 29.52467 -98.47226 789 ft 2 kts 337°
2026-04-25 14:06 29.52443 -98.47215 798 ft 4 kts 341°
2026-04-25 14:07 29.52417 -98.47206 798 ft 4 kts 346°
2026-04-25 14:07 29.52391 -98.47200 798 ft 4 kts 359°
2026-04-25 14:07 29.52366 -98.47205 798 ft 2 kts 38°
2026-04-25 14:07 29.52361 -98.47209 798 ft 0 kts 39°
2026-04-25 14:22 29.52364 -98.47207 798 ft 0 kts 39°
2026-04-25 14:22 29.52365 -98.47206 798 ft 1 kts 39°
2026-04-25 14:22 29.52372 -98.47199 798 ft 2 kts 39°
2026-04-25 14:23 29.52381 -98.47190 798 ft 2 kts 39°
2026-04-25 14:23 29.52393 -98.47179 798 ft 2 kts 39°
2026-04-25 14:23 29.52407 -98.47166 798 ft 3 kts 40°
2026-04-25 14:23 29.52423 -98.47151 798 ft 3 kts 39°
2026-04-25 14:24 29.52441 -98.47133 798 ft 4 kts 39°
2026-04-25 14:24 29.52461 -98.47114 798 ft 4 kts 41°
2026-04-25 14:24 29.52475 -98.47066 798 ft 7 kts 92°
2026-04-25 14:24 29.52483 -98.47010 798 ft 7 kts 66°
2026-04-25 14:25 29.52514 -98.46969 798 ft 7 kts 41°
2026-04-25 14:25 29.52551 -98.46934 798 ft 7 kts 40°
2026-04-25 14:25 29.52587 -98.46898 798 ft 7 kts 40°
2026-04-25 14:25 29.52600 -98.46886 798 ft 7 kts 40°
2026-04-25 14:26 29.52664 -98.46823 798 ft 7 kts 40°
2026-04-25 14:26 29.52706 -98.46789 798 ft 10 kts 26°
2026-04-25 14:26 29.52794 -98.46836 798 ft 16 kts 310°
2026-04-25 14:26 29.52868 -98.46931 798 ft 16 kts 312°
2026-04-25 14:27 29.52939 -98.47023 798 ft 15 kts 311°
2026-04-25 14:27 29.53009 -98.47113 798 ft 15 kts 311°
2026-04-25 14:27 29.53077 -98.47201 798 ft 15 kts 311°
2026-04-25 14:27 29.53144 -98.47287 798 ft 14 kts 311°
2026-04-25 14:28 29.53209 -98.47371 798 ft 14 kts 311°
2026-04-25 14:28 29.53273 -98.47454 798 ft 14 kts 311°
2026-04-25 14:28 29.53336 -98.47535 798 ft 13 kts 311°
2026-04-25 14:28 29.53396 -98.47613 798 ft 13 kts 311°
2026-04-25 14:29 29.53456 -98.47691 798 ft 13 kts 311°
2026-04-25 14:29 29.53515 -98.47767 798 ft 13 kts 312°
2026-04-25 14:29 29.53569 -98.47834 798 ft 13 kts 312°
2026-04-25 14:29 29.53628 -98.47909 798 ft 12 kts 312°
2026-04-25 14:30 29.53685 -98.47980 798 ft 12 kts 312°
2026-04-25 14:30 29.53791 -98.48119 798 ft 12 kts 311°
2026-04-25 14:30 29.53845 -98.48189 798 ft 12 kts 311°
2026-04-25 14:31 29.53899 -98.48260 798 ft 12 kts 311°
2026-04-25 14:31 29.53953 -98.48329 798 ft 12 kts 311°
2026-04-25 14:31 29.54007 -98.48399 798 ft 12 kts 311°
2026-04-25 14:31 29.54060 -98.48467 798 ft 12 kts 312°
2026-04-25 14:32 29.54124 -98.48548 798 ft 14 kts 312°
2026-04-25 14:32 29.54198 -98.48590 798 ft 12 kts 13°
2026-04-25 14:32 29.54245 -98.48537 798 ft 8 kts 108°
2026-04-25 14:32 29.54149 -98.48392 798 ft 58 kts 131°
2026-04-25 14:33 29.53682 -98.47792 800 ft 138 kts 132°
2026-04-25 14:33 29.52955 -98.46862 1327 ft 161 kts 132°
2026-04-25 14:33 29.52221 -98.45878 2265 ft 163 kts 131°
2026-04-25 14:33 29.51600 -98.44772 3093 ft 175 kts 108°
2026-04-25 14:34 29.51770 -98.43301 3599 ft 207 kts 60°
2026-04-25 14:34 29.52961 -98.42226 4149 ft 238 kts 18°
2026-04-25 14:34 29.54687 -98.42248 4780 ft 265 kts 340°
2026-04-25 14:34 29.56313 -98.43375 5602 ft 280 kts 318°
2026-04-25 14:35 29.57734 -98.44920 6727 ft 283 kts 314°
2026-04-25 14:35 29.59103 -98.46554 7879 ft 284 kts 314°
2026-04-25 14:35 29.60495 -98.48172 9097 ft 285 kts 315°
2026-04-25 14:35 29.61937 -98.49745 10198 ft 288 kts 317°
2026-04-25 14:36 29.63486 -98.51345 10784 ft 311 kts 318°
2026-04-25 14:36 29.65169 -98.53004 11545 ft 324 kts 319°
2026-04-25 14:36 29.66909 -98.54671 12556 ft 328 kts 319°
2026-04-25 14:36 29.68655 -98.56323 13605 ft 331 kts 319°
2026-04-25 14:37 29.70096 -98.57684 14342 ft 334 kts 319°
2026-04-25 14:37 29.71900 -98.59390 15226 ft 338 kts 318°
2026-04-25 14:37 29.73727 -98.61123 16100 ft 343 kts 317°
2026-04-25 14:37 29.75576 -98.62883 16968 ft 347 kts 317°
2026-04-25 14:38 29.77447 -98.64673 17838 ft 352 kts 316°
2026-04-25 14:38 29.79141 -98.66699 18619 ft 353 kts 306°
2026-04-25 14:38 29.80693 -98.68903 19412 ft 355 kts 306°
2026-04-25 14:38 29.82254 -98.71118 20230 ft 358 kts 306°
2026-04-25 14:39 29.83829 -98.73348 21045 ft 360 kts 306°
2026-04-25 14:39 29.85418 -98.75593 21824 ft 363 kts 306°
2026-04-25 14:39 29.87020 -98.77857 22580 ft 366 kts 306°
2026-04-25 14:39 29.88636 -98.80141 23372 ft 368 kts 306°
2026-04-25 14:40 29.90260 -98.82435 24003 ft 371 kts 306°
2026-04-25 14:40 29.91896 -98.84744 24653 ft 373 kts 306°
2026-04-25 14:40 29.93540 -98.87062 25307 ft 374 kts 306°
2026-04-25 14:40 29.95190 -98.89388 25948 ft 375 kts 305°
2026-04-25 14:41 29.96844 -98.91721 26587 ft 376 kts 305°
2026-04-25 14:41 29.98504 -98.94066 27210 ft 378 kts 305°
2026-04-25 14:41 30.00168 -98.96418 27721 ft 380 kts 305°
2026-04-25 14:41 30.01834 -98.98775 27875 ft 379 kts 305°
2026-04-25 14:42 30.03496 -99.01130 27913 ft 378 kts 304°
2026-04-25 14:42 30.04055 -99.01923 27914 ft 378 kts 304°
2026-04-25 14:42 30.06812 -99.05831 27905 ft 377 kts 304°
2026-04-25 14:42 30.08468 -99.08187 27905 ft 378 kts 304°
2026-04-25 14:43 30.10088 -99.10571 27894 ft 376 kts 300°
2026-04-25 14:43 30.11358 -99.13178 27878 ft 372 kts 291°
2026-04-25 14:43 30.12194 -99.15992 27880 ft 370 kts 283°
2026-04-25 14:43 30.12857 -99.18859 27876 ft 370 kts 283°
2026-04-25 14:44 30.13526 -99.21730 27860 ft 370 kts 283°
2026-04-25 14:44 30.14197 -99.24601 27857 ft 370 kts 283°
2026-04-25 14:44 30.14866 -99.27469 27839 ft 370 kts 283°
2026-04-25 14:44 30.15536 -99.30344 27834 ft 370 kts 283°
2026-04-25 14:45 30.16203 -99.33215 27824 ft 370 kts 283°
2026-04-25 14:45 30.16874 -99.36089 27817 ft 371 kts 283°
2026-04-25 14:45 30.17544 -99.38967 27805 ft 371 kts 283°
2026-04-25 14:45 30.18212 -99.41842 27793 ft 371 kts 283°
2026-04-25 14:46 30.18879 -99.44720 27783 ft 371 kts 283°
2026-04-25 14:46 30.19545 -99.47603 27784 ft 371 kts 283°
2026-04-25 14:46 30.20208 -99.50480 27782 ft 371 kts 283°
2026-04-25 14:46 30.20872 -99.53361 27786 ft 371 kts 283°
2026-04-25 14:47 30.21536 -99.56242 27804 ft 371 kts 283°
2026-04-25 14:47 30.21753 -99.57181 27790 ft 371 kts 283°
2026-04-25 14:47 30.22642 -99.61035 27803 ft 371 kts 283°
2026-04-25 14:47 30.23308 -99.63922 27812 ft 371 kts 283°
2026-04-25 14:48 30.24188 -99.67747 27827 ft 371 kts 283°
2026-04-25 14:48 30.24636 -99.69696 27816 ft 371 kts 283°
2026-04-25 14:48 30.25296 -99.72584 27818 ft 371 kts 283°
2026-04-25 14:48 30.26169 -99.76412 27825 ft 372 kts 283°
2026-04-25 14:49 30.26614 -99.78363 27827 ft 372 kts 283°
2026-04-25 14:49 30.27275 -99.81261 27832 ft 372 kts 283°
2026-04-25 14:49 30.27926 -99.84113 27826 ft 372 kts 283°
2026-04-25 14:49 30.28588 -99.87008 27825 ft 372 kts 283°
2026-04-25 14:50 30.29247 -99.89903 27822 ft 372 kts 283°
2026-04-25 14:50 30.29905 -99.92796 27833 ft 372 kts 283°
2026-04-25 14:50 30.30564 -99.95690 27826 ft 372 kts 283°
2026-04-25 14:50 30.31225 -99.98592 27822 ft 372 kts 283°
2026-04-25 14:51 30.31882 -100.01488 27808 ft 372 kts 283°
2026-04-25 14:51 30.32539 -100.04392 27810 ft 373 kts 283°
2026-04-25 14:51 30.33193 -100.07295 27799 ft 373 kts 283°
2026-04-25 14:51 30.33846 -100.10194 27800 ft 373 kts 283°
2026-04-25 14:52 30.34503 -100.13100 27781 ft 373 kts 283°
2026-04-25 14:52 30.35161 -100.16004 27792 ft 373 kts 283°
2026-04-25 14:52 30.35819 -100.18912 27782 ft 373 kts 283°
2026-04-25 14:52 30.36252 -100.20835 27784 ft 373 kts 283°
2026-04-25 14:53 30.37127 -100.24719 27788 ft 373 kts 283°
2026-04-25 14:53 30.37780 -100.27628 27789 ft 373 kts 283°
2026-04-25 14:53 30.38432 -100.30533 27792 ft 373 kts 283°
2026-04-25 14:53 30.39086 -100.33442 27808 ft 373 kts 283°
2026-04-25 14:54 30.39738 -100.36350 27826 ft 373 kts 282°
2026-04-25 14:54 30.40389 -100.39263 27836 ft 373 kts 282°
2026-04-25 14:54 30.41038 -100.42168 27850 ft 373 kts 282°
2026-04-25 14:54 30.41687 -100.45076 27867 ft 373 kts 282°
2026-04-25 14:55 30.42325 -100.47952 27875 ft 373 kts 282°
2026-04-25 14:55 30.42970 -100.50862 27887 ft 373 kts 282°
2026-04-25 14:55 30.43615 -100.53774 27898 ft 373 kts 282°
2026-04-25 14:55 30.44262 -100.56690 27909 ft 373 kts 282°
2026-04-25 14:56 30.44908 -100.59597 27914 ft 373 kts 282°
2026-04-25 14:56 30.45556 -100.62511 27920 ft 373 kts 282°
2026-04-25 14:56 30.46204 -100.65428 27925 ft 373 kts 282°
2026-04-25 14:56 30.46849 -100.68344 27928 ft 373 kts 282°
2026-04-25 14:57 30.47491 -100.71258 27927 ft 373 kts 282°
2026-04-25 14:57 30.48130 -100.74178 27918 ft 373 kts 282°
2026-04-25 14:57 30.48767 -100.77090 27915 ft 374 kts 282°
2026-04-25 14:57 30.49410 -100.80018 27904 ft 374 kts 282°
2026-04-25 14:58 30.50053 -100.82937 27898 ft 374 kts 282°
2026-04-25 14:58 30.50694 -100.85854 27886 ft 374 kts 282°
2026-04-25 14:58 30.51335 -100.88770 27877 ft 374 kts 282°
2026-04-25 14:58 30.51978 -100.91696 27871 ft 374 kts 282°
2026-04-25 14:59 30.52617 -100.94617 27853 ft 374 kts 282°
2026-04-25 14:59 30.53258 -100.97545 27845 ft 374 kts 282°
2026-04-25 14:59 30.53895 -101.00467 27854 ft 374 kts 282°
2026-04-25 14:59 30.54529 -101.03388 27864 ft 374 kts 282°
2026-04-25 15:00 30.55164 -101.06316 27870 ft 374 kts 282°
2026-04-25 15:00 30.55800 -101.09245 27877 ft 374 kts 282°
2026-04-25 15:00 30.56434 -101.12168 27883 ft 374 kts 282°
2026-04-25 15:00 30.57066 -101.15087 27894 ft 374 kts 282°
2026-04-25 15:01 30.57703 -101.18019 27908 ft 374 kts 282°
2026-04-25 15:01 30.58330 -101.20909 27902 ft 374 kts 282°
2026-04-25 15:01 30.58970 -101.23874 27899 ft 374 kts 282°
2026-04-25 15:01 30.59595 -101.26762 27905 ft 374 kts 282°
2026-04-25 15:02 30.60236 -101.29730 27906 ft 374 kts 282°
2026-04-25 15:02 30.60860 -101.32618 27898 ft 374 kts 282°
2026-04-25 15:02 30.61490 -101.35546 27889 ft 374 kts 282°
2026-04-25 15:02 30.62120 -101.38476 27877 ft 374 kts 282°
2026-04-25 15:03 30.62751 -101.41402 27869 ft 374 kts 282°
2026-04-25 15:03 30.63382 -101.44334 27866 ft 374 kts 282°
2026-04-25 15:03 30.64012 -101.47271 27857 ft 374 kts 282°
2026-04-25 15:03 30.64639 -101.50209 27841 ft 375 kts 282°
2026-04-25 15:04 30.65263 -101.53143 27823 ft 374 kts 282°
2026-04-25 15:04 30.65889 -101.56079 27813 ft 374 kts 282°
2026-04-25 15:04 30.66514 -101.59011 27799 ft 374 kts 282°
2026-04-25 15:04 30.67138 -101.61936 27790 ft 374 kts 282°
2026-04-25 15:05 30.67764 -101.64875 27787 ft 374 kts 282°
2026-04-25 15:05 30.68389 -101.67804 27786 ft 374 kts 282°
2026-04-25 15:05 30.69013 -101.70741 27797 ft 374 kts 282°
2026-04-25 15:06 30.70254 -101.76605 27789 ft 374 kts 282°
2026-04-25 15:06 30.70873 -101.79540 27788 ft 374 kts 282°
2026-04-25 15:06 30.71490 -101.82471 27785 ft 374 kts 282°
2026-04-25 15:06 30.72106 -101.85405 27785 ft 374 kts 282°
2026-04-25 15:07 30.72725 -101.88342 27785 ft 374 kts 282°
2026-04-25 15:07 30.73342 -101.91272 27780 ft 373 kts 282°
2026-04-25 15:07 30.73958 -101.94202 27783 ft 373 kts 282°
2026-04-25 15:07 30.74575 -101.97136 27779 ft 373 kts 282°
2026-04-25 15:08 30.75183 -102.00031 27779 ft 373 kts 282°
2026-04-25 15:08 30.75808 -102.03004 27779 ft 373 kts 282°
2026-04-25 15:08 30.76414 -102.05896 27778 ft 373 kts 282°
2026-04-25 15:08 30.77027 -102.08826 27779 ft 373 kts 282°
2026-04-25 15:09 30.77638 -102.11754 27779 ft 373 kts 282°
2026-04-25 15:09 30.78249 -102.14684 27778 ft 373 kts 282°
2026-04-25 15:09 30.79470 -102.20552 27774 ft 373 kts 282°
2026-04-25 15:10 30.80078 -102.23483 27776 ft 373 kts 282°
2026-04-25 15:10 30.80685 -102.26412 27772 ft 372 kts 282°
2026-04-25 15:10 30.81891 -102.32268 27767 ft 372 kts 282°
2026-04-25 15:11 30.82496 -102.35201 27769 ft 372 kts 282°
2026-04-25 15:11 30.83102 -102.38128 27769 ft 372 kts 282°
2026-04-25 15:11 30.83709 -102.41055 27766 ft 372 kts 282°
2026-04-25 15:12 30.84919 -102.46905 27763 ft 372 kts 281°
2026-04-25 15:12 30.85523 -102.49835 27762 ft 372 kts 281°
2026-04-25 15:12 30.86124 -102.52757 27779 ft 372 kts 281°
2026-04-25 15:12 30.86319 -102.53708 27785 ft 372 kts 281°
2026-04-25 15:13 30.87320 -102.58611 27814 ft 372 kts 281°
2026-04-25 15:13 30.88511 -102.64463 27844 ft 371 kts 281°
2026-04-25 15:13 30.89106 -102.67392 27859 ft 371 kts 281°
2026-04-25 15:14 30.89701 -102.70317 27878 ft 371 kts 281°
2026-04-25 15:14 30.90296 -102.73241 27894 ft 371 kts 281°
2026-04-25 15:14 30.90890 -102.76161 27909 ft 371 kts 281°
2026-04-25 15:14 30.91475 -102.79049 27926 ft 371 kts 281°
2026-04-25 15:15 30.92072 -102.82008 27933 ft 371 kts 281°
2026-04-25 15:15 30.92652 -102.84893 27936 ft 371 kts 281°
2026-04-25 15:15 30.93242 -102.87819 27933 ft 371 kts 281°
2026-04-25 15:15 30.93833 -102.90741 27935 ft 370 kts 281°
2026-04-25 15:16 30.94423 -102.93656 27934 ft 370 kts 281°
2026-04-25 15:16 30.95014 -102.96574 27933 ft 370 kts 282°
2026-04-25 15:16 30.96833 -103.02221 27923 ft 373 kts 289°
2026-04-25 15:17 30.98789 -103.07820 27887 ft 373 kts 289°
2026-04-25 15:17 30.99760 -103.10616 27870 ft 373 kts 289°
2026-04-25 15:17 31.00548 -103.12880 27860 ft 372 kts 289°
2026-04-25 15:18 31.01520 -103.15674 27840 ft 372 kts 289°
2026-04-25 15:18 31.03448 -103.21238 27807 ft 372 kts 289°
2026-04-25 15:18 31.04430 -103.24074 27795 ft 372 kts 289°
2026-04-25 15:19 31.05386 -103.26835 27773 ft 372 kts 289°
2026-04-25 15:19 31.05713 -103.27778 27769 ft 372 kts 289°
2026-04-25 15:19 31.07320 -103.32427 27764 ft 372 kts 289°
2026-04-25 15:19 31.08287 -103.35223 27778 ft 372 kts 289°
2026-04-25 15:20 31.09253 -103.38016 27788 ft 371 kts 289°
2026-04-25 15:20 31.10215 -103.40812 27797 ft 371 kts 289°
2026-04-25 15:20 31.11175 -103.43611 27806 ft 371 kts 289°
2026-04-25 15:20 31.12135 -103.46410 27821 ft 371 kts 289°
2026-04-25 15:21 31.13095 -103.49206 27821 ft 371 kts 289°
2026-04-25 15:21 31.14057 -103.52002 27833 ft 371 kts 289°
2026-04-25 15:21 31.15019 -103.54800 27831 ft 371 kts 289°
2026-04-25 15:21 31.15981 -103.57595 27835 ft 371 kts 289°
2026-04-25 15:22 31.16941 -103.60388 27843 ft 371 kts 289°
2026-04-25 15:22 31.17902 -103.63186 27841 ft 371 kts 289°
2026-04-25 15:22 31.18859 -103.65983 27838 ft 371 kts 289°
2026-04-25 15:22 31.19814 -103.68778 27835 ft 371 kts 288°
2026-04-25 15:23 31.20767 -103.71577 27830 ft 371 kts 288°
2026-04-25 15:23 31.21719 -103.74373 27824 ft 371 kts 288°
2026-04-25 15:23 31.22676 -103.77174 27816 ft 371 kts 288°
2026-04-25 15:23 31.23631 -103.79968 27809 ft 371 kts 288°
2026-04-25 15:24 31.24587 -103.82770 27803 ft 371 kts 288°
2026-04-25 15:24 31.25540 -103.85574 27790 ft 371 kts 288°
2026-04-25 15:24 31.26476 -103.88338 27782 ft 371 kts 288°
2026-04-25 15:24 31.26796 -103.89284 27780 ft 371 kts 288°
2026-04-25 15:25 31.28376 -103.93945 27774 ft 371 kts 288°
2026-04-25 15:25 31.29326 -103.96739 27782 ft 370 kts 288°
2026-04-25 15:25 31.30277 -103.99539 27780 ft 370 kts 288°
2026-04-25 15:25 31.31224 -104.02337 27784 ft 370 kts 288°
2026-04-25 15:26 31.32172 -104.05142 27782 ft 370 kts 288°
2026-04-25 15:26 31.33115 -104.07940 27786 ft 370 kts 288°
2026-04-25 15:26 31.34060 -104.10743 27789 ft 370 kts 288°
2026-04-25 15:26 31.35002 -104.13543 27788 ft 370 kts 288°
2026-04-25 15:27 31.35943 -104.16343 27790 ft 370 kts 288°
2026-04-25 15:27 31.36887 -104.19148 27790 ft 370 kts 288°
2026-04-25 15:27 31.38770 -104.24750 27791 ft 370 kts 288°
2026-04-25 15:28 31.39072 -104.25649 27794 ft 370 kts 288°
2026-04-25 15:28 31.39471 -104.26835 27787 ft 370 kts 288°
2026-04-25 15:29 31.39497 -104.26910 27791 ft 370 kts 288°
2026-04-25 15:29 31.39934 -104.28204 27788 ft 370 kts 288°
2026-04-25 15:29 31.40651 -104.30331 27792 ft 370 kts 288°
2026-04-25 15:30 31.41591 -104.33129 27791 ft 369 kts 288°
2026-04-25 15:30 31.42530 -104.35928 27794 ft 369 kts 288°
2026-04-25 15:30 31.43467 -104.38724 27792 ft 369 kts 288°
2026-04-25 15:30 31.44407 -104.41527 27792 ft 369 kts 288°
2026-04-25 15:31 31.45189 -104.44377 27792 ft 367 kts 281°
2026-04-25 15:31 31.45562 -104.47322 27792 ft 366 kts 276°
2026-04-25 15:31 31.45866 -104.50279 27791 ft 366 kts 276°
2026-04-25 15:31 31.46172 -104.53237 27793 ft 366 kts 276°
2026-04-25 15:32 31.46480 -104.56199 27793 ft 366 kts 276°
2026-04-25 15:32 31.46790 -104.59163 27792 ft 366 kts 276°
2026-04-25 15:32 31.47098 -104.62091 27780 ft 355 kts 276°
2026-04-25 15:33 31.47688 -104.67675 27291 ft 341 kts 276°
2026-04-25 15:33 31.47973 -104.70427 27038 ft 340 kts 276°
2026-04-25 15:33 31.48256 -104.73170 26793 ft 339 kts 276°
2026-04-25 15:33 31.48537 -104.75905 26540 ft 338 kts 276°
2026-04-25 15:34 31.48816 -104.78601 26298 ft 337 kts 276°
2026-04-25 15:34 31.49098 -104.81320 26069 ft 336 kts 276°
2026-04-25 15:34 31.49380 -104.84034 25815 ft 335 kts 276°
2026-04-25 15:34 31.49475 -104.84953 25733 ft 335 kts 276°
2026-04-25 15:35 31.50208 -104.92145 25105 ft 333 kts 276°
2026-04-25 15:35 31.50482 -104.94831 24880 ft 332 kts 276°
2026-04-25 15:35 31.50754 -104.97515 24638 ft 332 kts 276°
2026-04-25 15:36 31.51301 -105.02876 24179 ft 330 kts 276°
2026-04-25 15:36 31.51572 -105.05541 23961 ft 329 kts 276°
2026-04-25 15:36 31.51840 -105.08201 23736 ft 328 kts 276°
2026-04-25 15:37 31.52108 -105.10857 23516 ft 328 kts 276°
2026-04-25 15:37 31.52286 -105.12613 23360 ft 327 kts 276°
2026-04-25 15:37 31.52552 -105.15260 23100 ft 327 kts 276°
2026-04-25 15:37 31.52815 -105.17895 22836 ft 326 kts 276°
2026-04-25 15:38 31.53079 -105.20529 22570 ft 325 kts 276°
2026-04-25 15:38 31.53342 -105.23160 22309 ft 324 kts 276°
2026-04-25 15:38 31.53602 -105.25780 22051 ft 323 kts 276°
2026-04-25 15:38 31.53861 -105.28397 21794 ft 322 kts 276°
2026-04-25 15:39 31.54118 -105.31003 21542 ft 321 kts 275°
2026-04-25 15:39 31.54373 -105.33600 21289 ft 320 kts 275°
2026-04-25 15:39 31.54628 -105.36190 21037 ft 319 kts 275°
2026-04-25 15:39 31.54885 -105.38772 20781 ft 318 kts 275°
2026-04-25 15:40 31.55139 -105.41346 20535 ft 318 kts 275°
2026-04-25 15:40 31.55308 -105.43051 20381 ft 317 kts 275°
2026-04-25 15:40 31.55647 -105.46474 20056 ft 316 kts 275°
2026-04-25 15:40 31.55892 -105.48987 19764 ft 312 kts 275°
2026-04-25 15:41 31.56135 -105.51496 19348 ft 308 kts 275°
2026-04-25 15:41 31.56375 -105.53980 18902 ft 305 kts 275°
2026-04-25 15:41 31.56614 -105.56450 18451 ft 304 kts 275°
2026-04-25 15:41 31.56850 -105.58903 18013 ft 302 kts 275°
2026-04-25 15:42 31.57085 -105.61351 17497 ft 301 kts 275°
2026-04-25 15:42 31.57321 -105.63790 16997 ft 301 kts 275°
2026-04-25 15:42 31.57555 -105.66220 16515 ft 300 kts 275°
2026-04-25 15:42 31.57789 -105.68650 16037 ft 299 kts 275°
2026-04-25 15:43 31.58021 -105.71075 15553 ft 299 kts 274°
2026-04-25 15:43 31.58252 -105.73497 15073 ft 299 kts 274°
2026-04-25 15:43 31.58484 -105.75928 14615 ft 300 kts 274°
2026-04-25 15:43 31.58732 -105.78365 14122 ft 302 kts 277°
2026-04-25 15:44 31.59335 -105.80715 13638 ft 300 kts 291°
2026-04-25 15:44 31.60352 -105.82865 13071 ft 302 kts 297°
2026-04-25 15:44 31.61417 -105.84981 12553 ft 300 kts 297°
2026-04-25 15:44 31.62428 -105.86996 12076 ft 298 kts 297°
2026-04-25 15:45 31.63472 -105.89081 11566 ft 295 kts 297°
2026-04-25 15:45 31.64508 -105.91161 11071 ft 296 kts 297°
2026-04-25 15:45 31.65549 -105.93247 10563 ft 296 kts 297°
2026-04-25 15:45 31.66162 -105.94475 10268 ft 295 kts 297°
2026-04-25 15:46 31.67536 -105.97224 9747 ft 281 kts 297°
2026-04-25 15:46 31.68504 -105.99158 9272 ft 269 kts 297°
2026-04-25 15:46 31.69455 -106.01068 8806 ft 275 kts 297°
2026-04-25 15:46 31.70425 -106.03024 8263 ft 277 kts 298°
2026-04-25 15:47 31.71467 -106.04888 8049 ft 270 kts 310°
2026-04-25 15:47 31.73017 -106.06044 7921 ft 265 kts 339°
2026-04-25 15:47 31.74828 -106.06124 7862 ft 261 kts
2026-04-25 15:47 31.76400 -106.05165 7866 ft 252 kts 36°
2026-04-25 15:48 31.77673 -106.03845 7853 ft 237 kts 37°
2026-04-25 15:48 31.78866 -106.02598 7848 ft 224 kts 37°
2026-04-25 15:48 31.80023 -106.01395 7843 ft 221 kts 37°
2026-04-25 15:48 31.81180 -106.00197 7839 ft 222 kts 37°
2026-04-25 15:49 31.82339 -105.98998 7821 ft 222 kts 37°
2026-04-25 15:49 31.83498 -105.97798 7816 ft 222 kts 36°
2026-04-25 15:49 31.84667 -105.96585 7817 ft 227 kts 37°
2026-04-25 15:49 31.85853 -105.95358 7806 ft 228 kts 36°
2026-04-25 15:50 31.87046 -105.94134 7828 ft 227 kts 34°
2026-04-25 15:50 31.88398 -105.93245 7811 ft 220 kts 13°
2026-04-25 15:50 31.89875 -105.92928 7806 ft 213 kts 355°
2026-04-25 15:50 31.91314 -105.93153 7806 ft 205 kts 337°
2026-04-25 15:51 31.92581 -105.93841 7805 ft 198 kts 321°
2026-04-25 15:51 31.93285 -105.94502 7801 ft 195 kts 310°
2026-04-25 15:51 31.94299 -105.96195 7789 ft 189 kts 287°
2026-04-25 15:51 31.94668 -105.97665 7832 ft 190 kts 277°
2026-04-25 15:52 31.94733 -105.99204 7819 ft 187 kts 271°
2026-04-25 15:52 31.94756 -106.00745 7832 ft 186 kts 271°
2026-04-25 15:52 31.94781 -106.02279 7841 ft 188 kts 271°
2026-04-25 15:52 31.94806 -106.03830 7847 ft 189 kts 270°
2026-04-25 15:53 31.94832 -106.05373 7862 ft 190 kts 270°
2026-04-25 15:53 31.94859 -106.06931 7869 ft 190 kts 270°
2026-04-25 15:53 31.94885 -106.08482 7878 ft 189 kts 271°
2026-04-25 15:53 31.94907 -106.10032 7888 ft 189 kts 271°
2026-04-25 15:54 31.94930 -106.11583 7898 ft 189 kts 271°
2026-04-25 15:54 31.94954 -106.13139 7854 ft 191 kts 271°
2026-04-25 15:54 31.94977 -106.14701 7538 ft 190 kts 271°
2026-04-25 15:54 31.95001 -106.16255 7260 ft 190 kts 270°
2026-04-25 15:55 31.94970 -106.17804 6975 ft 189 kts 263°
2026-04-25 15:55 31.94628 -106.19302 6776 ft 192 kts 249°
2026-04-25 15:55 31.93916 -106.20643 6754 ft 195 kts 236°
2026-04-25 15:55 31.93088 -106.21873 6567 ft 188 kts 233°
2026-04-25 15:56 31.92295 -106.22993 6330 ft 162 kts 233°
2026-04-25 15:56 31.91636 -106.23916 6182 ft 137 kts 234°
2026-04-25 15:56 31.91055 -106.24732 5984 ft 127 kts 234°
2026-04-25 15:56 31.90499 -106.25514 5919 ft 125 kts 234°
2026-04-25 15:57 31.89939 -106.26300 5906 ft 125 kts 233°
2026-04-25 15:57 31.89385 -106.27077 5915 ft 124 kts 234°
2026-04-25 15:57 31.88829 -106.27857 5878 ft 125 kts 232°
2026-04-25 15:57 31.88271 -106.28637 5806 ft 124 kts 234°
2026-04-25 15:58 31.87706 -106.29417 5691 ft 126 kts 233°
2026-04-25 15:58 31.87147 -106.30191 5488 ft 124 kts 234°
2026-04-25 15:58 31.86597 -106.30970 5297 ft 124 kts 233°
2026-04-25 15:58 31.86039 -106.31749 5144 ft 124 kts 231°
2026-04-25 15:59 31.85472 -106.32522 4992 ft 125 kts 233°
2026-04-25 15:59 31.84927 -106.33310 4880 ft 124 kts 234°
2026-04-25 15:59 31.84363 -106.34098 4749 ft 129 kts 234°
2026-04-25 15:59 31.83783 -106.34909 4590 ft 130 kts 233°
2026-04-25 16:00 31.83203 -106.35733 4283 ft 132 kts 234°
2026-04-25 16:00 31.83003 -106.36011 4180 ft 130 kts 230°
2026-04-25 16:00 31.82067 -106.37327 3968 ft 123 kts 228°
2026-04-25 16:00 31.81576 -106.38005 3947 ft 91 kts 230°
2026-04-25 16:01 31.81271 -106.38428 3949 ft 51 kts 229°
2026-04-25 16:01 31.81061 -106.38721 3950 ft 43 kts 230°
2026-04-25 16:01 31.80932 -106.38894 3949 ft 25 kts 226°
2026-04-25 16:01 31.80822 -106.39040 3947 ft 22 kts 218°
2026-04-25 16:02 31.80688 -106.39111 3947 ft 7 kts 199°
2026-04-25 16:02 31.80629 -106.39135 3947 ft 11 kts 200°
2026-04-25 16:02 31.80619 -106.39140 3947 ft 0 kts 200°
2026-04-25 16:03 31.80599 -106.39148 3947 ft 4 kts 198°
2026-04-25 16:03 31.80575 -106.39158 3947 ft 4 kts 198°
2026-04-25 16:03 31.80546 -106.39169 3947 ft 7 kts 199°
2026-04-25 16:03 31.80481 -106.39196 3947 ft 12 kts 200°
2026-04-25 16:04 31.80390 -106.39235 3947 ft 16 kts 199°
2026-04-25 16:04 31.80296 -106.39278 3947 ft 8 kts 201°
2026-04-25 16:04 31.80239 -106.39315 3947 ft 11 kts 218°
2026-04-25 16:04 31.80165 -106.39381 3947 ft 15 kts 221°
2026-04-25 16:05 31.80143 -106.39438 3947 ft 4 kts 267°
2026-04-25 16:05 31.80145 -106.39484 3947 ft 3 kts 273°
2026-04-25 16:05 31.80123 -106.39533 3947 ft 5 kts 173°
2026-04-25 16:06 31.80095 -106.39526 3947 ft 2 kts 167°
2026-04-25 16:06 31.80083 -106.39523 3947 ft 2 kts 165°
2026-04-25 16:06 31.80071 -106.39519 3947 ft 1 kts 167°
2026-04-25 16:06 31.80061 -106.39516 3947 ft 2 kts 167°
2026-04-25 16:07 31.80049 -106.39513 3947 ft 2 kts 167°
2026-04-25 16:07 31.80046 -106.39513 3947 ft 1 kts 168°
2026-04-25 16:07 31.80039 -106.39511 3947 ft 0 kts 168°